FW9066 Weather Reports


time (UTC)temp
C
wind
direction
speed
KPH
gust
KPH
rain 1hr
cm
rain 24hr
cm
rain mn
cm
humidity
%
barometer
mb
20260509023005 12 131 0.0 1.6 0.00 0.00 0.00 81 1012.6
20260509020005 13 129 0.0 1.6 0.00 0.00 0.00 79 1012.2
20260509014503 13 124 3.2 3.2 0.00 0.00 0.00 77 1012.2
20260509013003 13 127 1.6 3.2 0.00 0.00 0.00 76 1012.2
20260509011503 14 139 1.6 4.8 0.00 0.00 0.00 76 1012.1
20260509004503 15 132 1.6 4.8 0.00 0.00 0.00 74 1011.9
20260509003004 15 133 1.6 4.8 0.00 0.00 0.00 74 1011.7
20260509000005 16 136 1.6 3.2 0.00 0.00 0.00 74 1011.6
20260508234503 17 132 1.6 3.2 0.00 0.00 0.00 67 1011.3
20260508233004 17 119 1.6 3.2 0.00 0.00 0.00 64 1011.3
20260508231503 17 131 1.6 3.2 0.00 0.00 0.00 64 1011.2
20260508230005 18 124 1.6 1.6 0.00 0.00 0.00 57 1011.2
20260508224503 18 145 1.6 3.2 0.00 0.00 0.00 54 1011.1
20260508223003 19 86 1.6 4.8 0.00 0.00 0.00 51 1011.2
20260508221503 20 240 0.0 1.6 0.00 0.00 0.00 54 1011.0
20260508220004 20 251 0.0 3.2 0.00 0.00 0.00 52 1011.1
20260508214502 21 257 3.2 8.0 0.00 0.00 0.00 43 1011.0
20260508213003 21 276 3.2 9.7 0.00 0.00 0.00 43 1011.0
20260508211503 21 287 3.2 11.3 0.00 0.00 0.00 38 1011.1
20260508210004 21 285 3.2 9.7 0.00 0.00 0.00 36 1011.0
20260508201502 21 117 1.6 4.8 0.00 0.00 0.00 47 1011.3
20260508200005 20 236 3.2 8.0 0.00 0.00 0.00 44 1011.4
20260508194503 20 27 4.8 9.7 0.00 0.00 0.00 42 1011.4
20260508193003 20 36 3.2 11.3 0.00 0.00 0.00 44 1011.7
20260508190004 20 38 3.2 6.4 0.00 0.00 0.00 51 1012.4
20260508184503 20 77 1.6 9.7 0.00 0.00 0.00 50 1012.5
20260508174503 18 297 1.6 6.4 0.00 0.00 0.00 60 1013.1
20260508173002 18 300 3.2 11.3 0.00 0.00 0.00 60 1013.3
20260508171503 17 293 3.2 11.3 0.00 0.00 0.00 60 1013.6
20260508170004 17 240 1.6 3.2 0.00 0.00 0.00 62 1014.1
20260508164501 16 335 3.2 9.7 0.00 0.00 0.00 64 1014.2
20260508163001 16 8 3.2 9.7 0.00 0.00 0.00 64 1014.6
20260508161501 16 360 3.2 8.0 0.00 0.00 0.00 65 1015.1
20260508160004 15 103 1.6 8.0 0.00 0.00 0.00 67 1015.1
20260508154501 15 224 3.2 6.4 0.00 0.00 0.00 69 1015.1
20260508153001 14 294 3.2 11.3 0.00 0.00 0.00 70 1015.3
20260508150005 13 320 1.6 9.7 0.00 0.00 0.00 76 1015.7
20260508144501 12 304 1.6 8.0 0.00 0.00 0.00 79 1015.6
20260508143001 12 33 1.6 3.2 0.00 0.00 0.00 81 1015.7
20260508141501 11 264 0.0 3.2 0.00 0.00 0.00 87 1015.8
20260508140003 9 104 1.6 4.8 0.00 0.00 0.00 91 1016.0
20260508134502 8 269 1.6 4.8 0.00 0.00 0.00 92 1016.1
20260508133002 8 275 1.6 3.2 0.00 0.00 0.00 93 1016.1
20260508131501 7 278 0.0 3.2 0.00 0.00 0.00 94 1016.2
20260508130004 7 14 0.0 3.2 0.00 0.00 0.00 95 1016.1
20260508124501 6 288 0.0 4.8 0.00 0.03 0.00 95 1016.1
20260508123001 6 293 1.6 3.2 0.00 0.03 0.00 95 1016.2
20260508121501 6 286 0.0 1.6 0.00 0.03 0.00 96 1016.1
20260508114501 6 248 0.0 1.6 0.00 0.03 0.00 95 1015.5
20260508113001 6 131 0.0 1.6 0.00 0.03 0.00 95 1015.4
20260508111501 6 131 0.0 1.6 0.00 0.03 0.00 95 1015.0
20260508104501 5 130 0.0 1.6 0.00 0.36 0.00 95 1014.5
20260508103000 5 131 0.0 0.0 0.00 0.36 0.00 95 1014.3
20260508101501 5 131 0.0 0.0 0.00 0.36 0.00 94 1014.1
20260508100004 5 130 0.0 1.6 0.00 0.36 0.00 94 1013.9
20260508094501 5 131 0.0 1.6 0.00 0.43 0.00 94 1013.8
20260508093001 5 131 0.0 1.6 0.00 0.43 0.00 94 1013.7
20260508091501 5 130 0.0 0.0 0.00 0.43 0.00 94 1013.6
20260508090004 6 130 0.0 1.6 0.00 0.43 0.00 93 1013.5
20260508084501 6 131 0.0 1.6 0.00 0.43 0.00 94 1013.5
20260508083001 6 130 0.0 1.6 0.00 0.43 0.00 94 1013.5
20260508081501 6 146 0.0 1.6 0.00 0.43 0.00 95 1013.5
20260508074501 6 151 0.0 0.0 0.00 0.43 0.00 95 1013.2
20260508073001 6 151 0.0 1.6 0.00 0.43 0.00 95 1013.1
20260508071501 6 151 0.0 0.0 0.00 0.43 0.00 95 1013.2
20260508070002 7 313 0.0 1.6 0.00 0.43 0.00 95 1013.4
20260508064500 7 148 0.0 1.6 0.00 0.43 0.00 95 1013.6
20260508061500 7 137 0.0 1.6 0.00 0.43 0.00 94 1013.4
20260508054505 7 138 0.0 0.0 0.00 0.48 0.00 94 1013.5
20260508053003 7 138 0.0 1.6 0.00 0.48 0.00 95 1013.3
20260508051504 7 139 0.0 0.0 0.00 0.48 0.00 94 1013.5
20260508050014 7 137 0.0 0.0 0.00 0.48 0.00 94 1013.4
20260508043004 8 153 0.0 1.6 0.00 0.69 0.48 94 1013.3
20260508041505 8 143 0.0 3.2 0.00 0.69 0.48 94 1013.2
20260508040005 8 153 0.0 1.6 0.00 0.69 0.48 93 1013.4
20260508034503 8 126 0.0 1.6 0.00 1.24 0.48 93 1013.2
20260508030005 9 152 0.0 0.0 0.00 1.24 0.48 91 1013.2